Vorticity
-25 14 25 10 14 28 -6 7 11 -4 9 1 5 2 -5 6 -10 6 7 16 15 -2
31 1 6 1 44 17 -10 12 12 25 14 36 31 -6 4 -7 30 29 26 -1 6 3
-8 5 19 25 16 19 18 10 16 -9 -4 11 3 0 12 -6 14 15 14 10 10 7
-5 7 24 3 -1 17 13 10 10 2 17 2 11 4 5 5 4 -3 -2 1 -1 -2
27 19 4 8 5 21 6 2 3 -6 -5 -5 -5 -3 -3 -2 4 5 5 5 5 5
-1 1 3 4 1 -1 0 2 -0 3 7 5 2 3 4 6 10 8 7 6 5 5
4 4 2 4 3 6 7 7 4 5 4 4 5 7 9 9 8 7 6 5 5 10
7 7 5 4 3 3 3 3 1 1 4 6 4 5 6 8 4 1 2 4 6 7
24 25 23 16 8 6 6 4 4 4 4 5 7 5 5 3 4 7 13 12 15 13
4 4 4 3 2 2 1 1 1 0 1 3 5 3 4 3 3 6 5 7 11 8
5 6 4 4 4 6 6 6 6 6 4 2 3 6 5 6 6 8 10 11 14 11
2 4 5 5 3 2 0 1 1 1 5 3 0 3 3 0 3 5 5 10 11 20
3 2 3 3 2 2 2 1 0 2 7 6 3 4 4 3 4 10 16 13 10 10
2 -0 -0 -0 1 2 2 6 6 2 0 1 4 5 9 15 21 15 7 7 16 16
Height
5689 5695 5698 5703 5709 5713 5718 5723 5726 5729 5730 5733 5734 5737 5739 5740 5741 5740 5742 5742 5740 5740
5686 5691 5697 5701 5704 5708 5713 5716 5719 5720 5723 5724 5726 5729 5729 5730 5728 5729 5732 5733 5733 5733
5684 5688 5693 5697 5701 5705 5709 5711 5714 5715 5717 5718 5720 5720 5722 5723 5724 5725 5726 5726 5725 5724
5683 5687 5690 5695 5698 5701 5705 5707 5708 5710 5712 5712 5713 5714 5713 5714 5714 5714 5715 5713 5713 5712
5681 5685 5688 5691 5694 5696 5698 5701 5702 5702 5703 5704 5704 5703 5703 5703 5703 5703 5701 5701 5702 5702
5679 5682 5685 5688 5690 5690 5692 5693 5694 5696 5695 5694 5693 5692 5692 5691 5692 5691 5691 5690 5689 5690
5677 5679 5681 5683 5685 5685 5685 5685 5685 5686 5687 5686 5686 5685 5682 5681 5680 5679 5679 5678 5678 5676
5674 5674 5675 5677 5678 5678 5678 5678 5678 5675 5675 5674 5671 5671 5670 5669 5669 5666 5664 5664 5663 5661
5668 5668 5670 5669 5669 5668 5668 5667 5665 5666 5665 5663 5661 5659 5657 5654 5651 5649 5648 5648 5647 5645
5665 5664 5663 5661 5659 5657 5655 5655 5654 5652 5649 5647 5644 5641 5639 5638 5637 5635 5631 5628 5627 5627
5656 5655 5654 5650 5648 5647 5646 5642 5641 5637 5635 5631 5625 5621 5619 5617 5616 5614 5612 5609 5607 5607
5648 5646 5642 5639 5638 5635 5632 5628 5622 5618 5614 5609 5603 5598 5594 5591 5591 5590 5588 5586 5586 5584
5636 5633 5630 5627 5622 5616 5612 5610 5604 5598 5593 5588 5583 5573 5568 5564 5563 5563 5561 5558 5560 5561
5617 5612 5606 5600 5592 5591 5589 5583 5579 5573 5565 5558 5552 5547 5541 5536 5533 5534 5532 5534 5533 5533